Location: Kunchanapalle
(16.4623°N, 80.6176°E)
Time: 09:48:42
(UTC+00:00)

SJ-6B - Pass Details

Date: 13 August 2020
Orbit: 509 x 582 km, 97.6° (Epoch: 18 September)

Event Time Altitude Azimuth Distance (km) Brightness Sun altitude
Exits shadow 14:42:41 62° 28° (NNE) 644 3.0 -23.3°
Drops below altitude 10° 14:46:12 10° 354° (N) 1,860 5.9 -24.1°
Sets 14:48:19 0° 352° (N) 2,747 6.8 -24.5°
